Terug naar catalogus

BREEZE-M DEB

LostHEO
NORAD 34256·DEBRIS·🇷🇺 Russia

Gelanceerd Feb 28, 2006 vanaf Baikonur Cosmodrome

Loading…

Volgende Passages (komende 24 uur)

TLE

VerouderdSource: Space-Track

Epoch: Dec 25, 2022, 00:52 UTC

1 34256U 06006BX  22359.03675660  .00001873  00000-0  54852-2 0  9991
2 34256  51.8721 214.8253 5062492 205.5318 344.0781  5.19659954273645

Volg BREEZE-M DEB in realtime met AllMySat

Download on the App Store